Flag for United Kingdom Weather past 2 weeks in St Helens, England, United Kingdom

Now
70 °F

Passing clouds.


Feels Like: 70 °F
Forecast: 61 / 78 °F
Wind: 5 mph from Southeast

Location: Liverpool Airport

Current Time: Jul 23, 2014 at 11:34:57 AM

Latest Report: Jul 23, 2014 at 9:50 AM


Visibility: N/A

Pressure: 30.21 "Hg

Humidity: 69%

Dew point: 59 °F

Location of St HelensLocation

Historic Weather in St Helens — Graph

°F

St Helens temperature yesterday

Maximum temperature yesterday: 77 °F (at 2:20 PM)
Minimum temperature yesterday: 57 °F (at 4:20 AM)
Average temperature yesterday: 68 °F

Past Weeks' High & Low Weather Summary

 TemperatureHumidityPressure
High77 °F (Jul 17, 2:50 PM)100% (Jul 12, 3:20 AM)30.24 "Hg (Jul 12, 3:20 AM)
Low52 °F (Jul 14, 4:20 AM)42% (Jul 17, 3:50 PM)29.71 "Hg (Jul 13, 4:20 AM)
Average64 °F77%30.00 "Hg
* Reported Jul 8 9:20 AM — Jul 23 9:50 AM, St Helens, Weather by CustomWeather, © 2014

Note: Actual official high and low records may vary slightly from our data, if they occured in-between our weather recording intervals... More about our weather records

Advertising

St Helens weather history for previous 24 hours

 ConditionsComfort  
Time TempWeatherWind HumidityBarometerVisibility
9:50 AM
Jul 23
70 °FPassing clouds.5 mph69%30.21 "HgN/A
8:50 AM66 °FPassing clouds.6 mph78%30.21 "HgN/A
6:50 AM61 °FClear.8 mph94%30.24 "Hg6 mi
6:20 AM59 °FSunny.9 mph94%30.24 "Hg10 mi
5:50 AM59 °FClear.8 mph94%30.24 "Hg10 mi
5:20 AM57 °FClear.10 mph94%30.24 "Hg10 mi
4:50 AM57 °FClear.6 mph94%30.24 "Hg10 mi
3:20 AM63 °FClear.6 mph83%30.24 "Hg10 mi
2:50 AM63 °FClear.7 mph83%30.24 "Hg10 mi
2:20 AM61 °FClear.6 mph88%30.24 "Hg10 mi
1:50 AM63 °FClear.7 mph83%30.24 "Hg10 mi
1:20 AM63 °FClear.7 mph83%30.24 "Hg10 mi
12:50 AM64 °FClear.6 mph78%30.24 "Hg10 mi
5:50 PM
Jul 22
77 °FPassing clouds.7 mph57%30.21 "HgN/A
5:20 PM77 °FPassing clouds.7 mph54%30.21 "HgN/A
4:50 PM77 °FPassing clouds.9 mph57%30.21 "HgN/A
4:20 PM77 °FPassing clouds.8 mph57%30.21 "HgN/A
3:50 PM77 °FPassing clouds.5 mph54%30.21 "HgN/A
3:20 PM77 °FPassing clouds.6 mph51%30.21 "HgN/A
2:50 PM75 °FPassing clouds.6 mph54%30.24 "HgN/A
2:20 PM77 °FPassing clouds.5 mph51%30.24 "HgN/A
1:50 PM75 °FPassing clouds.6 mph54%30.24 "HgN/A
1:20 PM75 °FPassing clouds.7 mph54%30.24 "HgN/A
12:50 PM73 °FPassing clouds.6 mph57%30.24 "HgN/A
12:20 PM73 °FPassing clouds.5 mph53%30.24 "HgN/A
11:50 AM73 °FPassing clouds.6 mph57%30.24 "HgN/A
11:20 AM72 °FPassing clouds.6 mph65%30.24 "HgN/A
Weather by CustomWeather, © 2014

See weather overviewHow to use our weather pages